RH
32 35 33 29 28 28 30 32 33 34 35 36 37 37 35 31 24 24 25 20 16 15 14 14 14 14 15 15 16 16 15 15 14 14 14 14 15 17 20 22 23 21 21 24 23 20 19 20 25 30 29 27 27 30 32 34 39 40 38 38 40 41 40
36 36 35 31 29 27 28 30 32 33 34 36 38 39 38 35 28 24 23 18 15 14 14 14 14 14 15 15 15 16 15 14 14 14 14 14 14 15 17 20 22 20 19 21 25 25 22 19 20 22 25 25 26 29 31 33 37 40 38 37 39 41 38
37 34 32 32 30 27 27 28 29 31 33 34 36 37 37 36 33 28 23 18 15 13 13 14 14 14 14 15 15 16 15 15 14 13 13 13 14 15 16 18 19 20 19 18 21 25 26 23 19 18 20 22 24 27 28 31 35 38 38 37 38 40 37
33 33 33 33 32 30 27 28 28 29 31 32 35 35 36 37 36 34 27 19 14 12 12 12 13 14 14 14 15 15 15 15 14 14 13 13 14 15 16 17 17 18 19 18 17 21 25 27 24 19 18 20 21 24 26 28 31 35 37 37 38 39 38
31 33 36 34 33 31 28 27 28 30 30 30 32 34 36 37 38 38 33 25 16 11 10 10 11 12 13 13 14 14 14 14 14 14 13 14 16 16 16 17 17 18 18 19 19 19 21 25 26 23 20 20 20 22 23 25 28 31 35 37 39 38 37
30 32 35 34 33 29 27 28 29 30 30 29 30 33 34 36 37 37 36 32 25 16 11 9 11 11 12 12 12 13 13 13 14 14 14 14 16 17 18 17 19 19 19 20 21 21 20 22 25 25 24 23 22 23 25 25 26 29 32 36 39 38 36
31 32 33 33 33 31 29 28 29 29 29 28 29 31 33 34 35 36 36 35 31 23 16 11 10 10 10 11 11 12 12 13 14 14 15 16 17 18 19 19 20 20 19 20 20 21 21 21 23 25 26 26 25 25 26 25 25 28 31 33 38 39 37
33 32 31 32 34 35 33 31 31 28 26 27 28 29 31 32 34 35 35 35 34 31 24 17 12 10 9 10 12 13 14 15 16 17 18 18 19 20 21 22 22 22 21 21 20 20 21 21 22 23 26 28 28 27 28 27 26 27 29 32 35 38 38
31 29 29 32 33 34 35 35 32 28 27 28 29 30 31 31 32 33 34 35 36 35 32 27 21 16 13 13 14 15 15 17 18 19 20 21 22 23 23 24 24 24 23 22 22 21 21 22 22 23 24 27 28 28 27 27 26 25 27 29 31 35 37
28 28 30 33 33 33 35 36 32 29 30 31 31 30 30 29 29 31 33 36 37 38 38 36 33 29 22 18 18 19 19 19 20 20 21 22 23 24 24 25 26 25 24 24 24 24 23 23 23 24 24 25 27 28 27 27 26 25 25 26 28 31 34
30 31 32 35 34 33 34 34 31 31 31 32 31 29 28 28 29 30 32 34 36 38 40 41 40 38 33 25 23 24 24 23 23 24 24 24 24 25 25 25 27 27 26 25 25 26 25 24 24 25 25 24 25 26 27 26 26 25 24 24 25 28 31
30 31 32 32 30 30 31 32 32 33 33 33 32 28 27 29 31 31 31 33 35 37 39 41 41 41 39 35 30 28 27 28 28 29 29 28 28 28 27 27 29 31 29 26 24 24 25 24 23 22 23 23 23 24 24 24 24 23 23 22 23 25 28
25 28 31 30 29 30 32 33 34 35 35 35 35 32 29 29 30 31 31 33 34 35 37 39 39 40 41 41 38 33 30 29 30 32 33 33 32 32 32 31 33 35 34 30 26 24 24 26 24 21 21 21 20 21 21 22 22 21 21 21 21 22 24
23 27 29 29 30 31 33 34 35 37 37 36 35 35 32 31 30 30 31 31 33 34 35 37 38 40 42 44 45 41 35 32 31 33 35 37 37 36 35 35 36 37 38 36 32 29 28 29 29 25 23 23 22 22 21 21 21 22 21 21 20 21 22
23 26 28 29 31 32 33 35 35 35 38 37 35 35 34 32 32 32 32 33 33 34 34 36 39 41 43 47 47 45 42 38 35 35 37 39 39 38 37 38 39 40 41 40 38 36 33 34 36 34 30 28 27 26 25 24 24 23 22 22 22 21 23
22 25 28 29 32 32 31 32 33 32 33 34 34 35 34 33 32 32 33 34 34 34 34 34 37 41 44 46 47 46 47 45 40 38 39 40 41 39 37 38 39 40 41 41 41 40 37 36 40 42 40 37 34 32 31 30 28 26 24 23 22 21 22
20 24 27 27 29 31 29 28 28 27 27 27 28 30 33 34 33 33 32 33 34 34 33 33 34 38 43 46 48 48 49 46 43 40 40 41 41 40 38 39 40 40 40 41 43 43 41 40 42 44 46 46 43 40 37 35 33 31 29 26 24 23 22
17 19 22 22 23 25 25 25 25 24 23 23 22 24 28 31 32 33 32 32 32 32 32 32 32 35 41 45 47 49 48 46 43 41 41 41 41 40 40 40 41 40 40 40 42 43 42 42 42 43 47 50 49 47 45 41 37 34 33 30 27 27 25
14 16 19 19 18 19 21 25 27 25 23 22 22 22 24 27 30 31 31 31 30 30 31 31 30 32 38 43 46 47 46 45 42 41 40 39 39 40 41 41 40 39 39 39 41 42 42 41 41 42 45 48 50 50 49 47 41 37 35 34 31 29 28
13 14 15 15 16 17 18 22 24 22 19 18 18 18 20 25 28 29 28 28 29 30 30 30 29 31 36 40 44 45 45 43 41 40 39 38 38 39 39 39 38 37 37 39 41 43 43 43 44 44 45 46 48 49 49 48 46 42 38 36 36 33 31
11 11 11 12 13 16 18 19 20 19 18 17 17 16 17 20 24 26 26 27 28 29 29 29 31 33 34 37 40 42 43 42 39 38 38 39 38 38 36 36 36 37 39 42 45 45 45 46 46 47 47 47 49 50 49 49 49 46 41 38 37 37 36
11 11 12 13 13 15 16 15 14 15 15 14 15 16 15 16 19 22 24 26 28 28 28 29 32 34 34 33 34 36 37 37 37 37 37 38 37 36 35 35 37 40 43 45 48 49 49 49 49 50 51 50 50 50 49 50 50 48 45 43 41 39 38
13 14 16 16 15 15 15 14 15 16 14 12 12 14 15 14 15 18 21 24 27 27 28 29 32 33 34 33 34 35 37 38 37 37 37 37 37 36 36 38 40 42 43 45 48 50 50 50 51 52 54 53 51 49 48 49 50 49 48 48 47 45 41
19 18 19 19 18 18 18 19 19 18 15 13 13 14 15 14 14 16 19 22 24 26 28 31 33 33 34 36 38 40 41 41 41 40 39 38 38 39 41 43 44 45 45 45 47 50 51 52 51 51 52 52 51 49 46 47 49 50 50 50 49 49 47
22 21 20 19 19 22 21 19 16 14 14 14 15 16 17 15 15 17 19 20 22 23 26 31 34 35 36 38 41 43 43 43 42 42 41 40 41 43 45 46 46 46 46 45 46 48 49 51 51 51 50 50 51 50 48 47 49 51 51 50 50 50 49
24 22 21 20 21 22 21 19 19 21 21 20 20 21 21 19 18 18 20 22 21 22 25 29 32 35 37 39 42 44 44 42 42 43 43 43 44 45 46 45 45 45 44 44 46 48 49 50 50 50 51 50 50 50 49 49 50 51 51 50 51 51 51
26 25 23 23 23 23 22 22 26 27 25 23 22 20 20 21 21 20 20 23 23 23 25 27 30 34 37 39 42 44 44 42 42 43 44 43 43 43 44 45 45 45 45 46 48 49 49 51 50 49 49 50 50 50 50 49 50 50 48 47 47 48 50
28 27 26 26 26 26 26 27 29 29 28 27 25 22 21 21 22 22 22 23 24 24 24 26 29 33 36 38 41 42 43 43 43 42 42 41 41 43 45 46 47 49 49 50 50 50 50 51 51 49 49 49 50 51 51 51 51 51 48 44 44 46 48
31 30 29 28 27 28 29 30 32 32 31 30 28 27 25 23 23 24 24 24 24 24 24 24 27 31 35 37 39 41 43 45 46 45 44 43 44 45 45 46 48 50 51 52 52 52 52 52 52 52 51 51 51 51 49 49 49 48 46 43 42 45 48
32 32 32 30 29 30 31 32 34 34 34 33 30 26 25 25 25 25 26 27 26 25 24 24 25 29 32 34 36 40 42 45 48 49 49 48 47 46 45 45 46 47 49 50 50 50 50 50 51 52 51 51 50 49 46 45 45 44 43 42 44 47 49
34 34 35 34 33 33 32 32 34 34 35 35 32 27 27 29 29 29 29 30 29 27 27 26 26 29 31 33 35 39 41 44 48 51 51 51 50 49 48 49 49 48 48 48 47 47 47 47 48 49 49 48 49 47 44 43 42 42 42 43 47 50 52
35 35 36 35 34 35 34 32 33 34 35 35 34 32 30 31 31 32 32 32 31 31 30 29 29 30 31 32 36 39 40 43 46 48 49 50 49 48 48 49 48 48 47 45 44 43 44 44 44 45 46 47 47 47 46 45 44 43 43 43 46 50 52
36 36 37 37 37 38 36 34 34 35 35 36 36 35 34 33 33 33 32 32 33 32 29 28 30 31 31 33 35 37 39 42 44 45 46 47 48 47 47 47 46 44 44 43 42 42 43 44 44 45 46 46 46 45 46 45 44 44 45 45 47 50 52
37 37 37 38 38 38 38 37 36 35 36 37 37 37 37 36 35 35 34 33 33 32 30 30 31 32 33 34 35 36 37 38 40 41 42 44 45 45 44 44 44 43 43 43 43 43 44 44 46 48 49 48 47 46 45 45 45 46 48 49 49 50 51
38 37 37 38 38 38 38 38 37 36 36 38 39 38 38 38 37 36 35 35 34 34 34 34 34 34 34 35 35 36 36 35 36 37 38 38 38 39 40 40 41 41 42 43 44 44 44 44 46 48 48 48 47 46 46 47 48 49 50 50 48 47 46
39 38 37 37 38 38 38 38 37 36 36 37 38 38 37 37 37 36 36 35 35 35 35 36 37 37 36 35 35 35 34 34 33 34 35 35 34 35 36 37 38 39 39 40 41 42 42 43 45 45 45 45 45 45 46 48 49 50 49 47 44 42 41
40 38 37 37 38 38 38 38 37 37 36 36 37 36 36 37 36 36 36 37 36 36 36 36 37 37 37 37 36 36 36 36 36 36 36 35 35 34 35 35 36 37 37 37 39 40 40 41 41 42 42 42 42 42 43 44 44 44 43 42 41 40 40
41 40 40 40 41 40 39 39 38 39 39 39 38 38 38 37 36 36 37 37 37 38 38 37 36 36 36 36 36 36 36 37 38 39 39 39 38 38 36 36 35 36 36 35 32 31 33 35 35 37 39 40 40 40 39 40 40 40 40 39 40 40 41